Overview Statistics Trail Chart Weather Telemetry Raw packets
 

This is the latest recevied weather packets stored in our database for station/object K7OWW-2. If no packets are shown the sender has not sent any weather packets the latest 10 day(s).

<< 28 29 30 31 32 33 34 >>
Time Temp. Humidity Pressure Rain* Wind** Luminosity Snow
1788118135 20° C 33% 1019.5 hPa 0 mm - - -
1788117535 20° C 32% 1019.7 hPa 0 mm - - -
1788117237 19.44° C 33% 1019.7 hPa 0 mm - - -
1788116935 18.33° C 36% 1019.8 hPa 0 mm - - -
1788116337 18.33° C 37% 1020 hPa 0 mm - - -
1788115735 17.78° C 40% 1020 hPa 0 mm - - -
1788115438 17.22° C 42% 1020.1 hPa 0 mm - - -
1788115135 16.67° C 43% 1020.2 hPa 0 mm - - -
1788114535 16.11° C 42% 1020.4 hPa 0 mm - - -
1788113935 15.56° C 46% 1020.4 hPa 0 mm - - -
1788113638 15° C 49% 1020.5 hPa 0 mm - - -
1788113335 14.44° C 50% 1020.6 hPa 0 mm - - -
1788112735 13.89° C 52% 1020.7 hPa 0 mm - - -
1788112135 13.89° C 52% 1020.8 hPa 0 mm - - -
1788111535 13.33° C 56% 1020.8 hPa 0 mm - - -
1788110935 12.78° C 60% 1020.8 hPa 0 mm - - -
1788110335 11.67° C 63% 1020.8 hPa 0 mm - - -
1788109735 11.11° C 65% 1020.9 hPa 0 mm - - -
1788109135 10.56° C 68% 1020.9 hPa 0 mm - - -
1788108535 10° C 70% 1021 hPa 0 mm - - -
1788107935 8.89° C 73% 1021.2 hPa 0 mm - - -
1788107337 8.33° C 76% 1021.2 hPa 0 mm - - -
1788106735 7.78° C 78% 1021.3 hPa 0 mm - - -
1788106438 7.78° C 80% 1021.3 hPa 0 mm - - -
1788106135 6.67° C 85% 1021.5 hPa 0 mm - - -

* Rain latest hour (hover to see other rain measurements)
** Current wind speed in m/s (hover to see current wind gust speed)